Volver al catálogo

TITAN 3C TRANSTAGE DEB

ActivoHEO
NORAD 27793·DEBRIS·🇺🇸 United States

Lanzado Dec 21, 1965 desde Cape Canaveral Space Force Station

Loading…

Próximos Pases (próximas 24 horas)

TLE

ActualizadoSource: Space-Track

Época: Sep 11, 2026, 13:00 UTC

1 27793U 65108BH  26254.54194269  .00002884  00000-0  92711-2 0  9991
2 27793  26.5546   6.0239 6522003 147.4576 278.9568  3.14060135139113

Sigue TITAN 3C TRANSTAGE DEB en tiempo real con AllMySat

Download on the App Store